www.pogodaiklimat.ru

Погода и климат >> Архив погоды >> Россия >> Ленинградская область >> Шлиссельбург


ПОГОДА в Шлиссельбурге

  • Прогноз погоды в Шлиссельбурге
  • Монитор погоды в Шлиссельбурге
  • Климат города

АРХИВ ПОГОДЫ в Шлиссельбурге

Время (UTC), дата Ветер
(напр.,м/с)
 
Видим.   Явления Облачность Т
(С)
Тd
(С)
f
(%)
Тe
(С)
Тes
(С)
Комфортность P
(гПа)
Po
(гПа)
Тmin
(С)
Tmax
(С)
R
(мм)
R24
(мм)
S
(см)
12 15.09 Ю 2 20 км 8/3 1000 м
[Cu hum Cc]
+19.3 +9.5 53 +21 +23 комфорт 1015.4 1013.5
15 15.09 Ю 1 20 км 9/0
[Ac trans]
+17.3 +9.7 61 +18 +19 1014.1 1012.2
18 15.09 ЮВ 1 20 км 10/0
[Ci]
+13.3 +9.6 78 +14 +14 1013.4 1011.5 +19.8
21 15.09 Ю 1 20 км 10/0
[Ac und]
+12.7 +9.1 79 +13 +13 1012.4 1010.5
00 16.09 Ю 1 20 км 10/0
[Ac und]
+12.5 +9.6 82 +13 +13 1010.5 1008.6
03 16.09 Ю 1 20 км 10/0
[Ac und]
+10.8 +10.4 97 +10 +10 1009.3 1007.3 +10.7
06 16.09 ЮЗ 1 20 км {ливн. осадки} 10/0
[Ac und]
+11.3 +10.9 97 +11 +12 1009.3 1007.4 +10.6 1
09 16.09 З 2 20 км {ливн. осадки} 9/5 1000 м
[Cb cap Ac trans]
+14.7 +11.3 80 +14 +16 1010.3 1008.4
12 16.09 З 1 20 км {ливн. осадки} 8/4 1000 м
[Cu med, cong Ac trans]
+15.4 +7.4 59 +16 +18 1012.0 1010.1
15 16.09 З 1 20 км 3/0
[Ac trans]
+14.9 +6.5 57 +16 +16 1013.0 1011.1 2
18 16.09 штиль 0 20 км {ливн. осадки} 3/0
[Ac trans]
+8.5 +8.3 99 +7 +7 1013.8 1011.9 +15.6 2
21 16.09 ЮЗ 2 20 км 4/0
[Ac trans]
+8.4 +8.0 97 +6 +6 1013.9 1011.9
00 17.09 ЮЗ 2 20 км 3/0
[Ac trans]
+7.4 +7.4 100 +5 +5 1013.3 1011.3
03 17.09 Ю 1 20 км {ливн. осадки} 4/0
[Ac trans]
+7.4 +7.2 99 +6 +6 1013.5 1011.5 +7.0 2
06 17.09 Ю 2 20 км {ливн. осадки} 10/0
[As trans]
+9.0 +9.0 100 +7 +8 1012.9 1011.0 +7.0 0.5
09 17.09 Ю 2 20 км 10/0
[As trans]
+12.8 +10.9 88 +12 +14 1012.1 1010.2
12 17.09 Ю 3 10 км слабый дождь 10/0
[As op]
+12.5 +12.1 97 +11 +12 1009.3 1007.4
15 17.09 Ю 3 10 км слабый дождь 10/10 300 м
[Frnb Ns]
+11.0 +10.8 99 +9 +9 1005.1 1003.2 5
18 17.09 Ю 2 10 км слабый дождь 10/10 300 м
[Frnb Ns]
+12.5 +12.3 99 +11 +11 1003.4 1001.5 +14.0 6
21 17.09 ЮЗ 2 10 км слабый дождь 10/10 420 м
[Frnb Ns]
+13.0 +12.8 99 +12 +12 1003.5 1001.6
00 18.09 З 2 20 км {дождь} 10/10 630 м
[Sc]
+12.4 +12.2 99 +11 +11 1005.1 1003.4
03 18.09 З 2 20 км 9/0
[Ac trans]
+11.2 +9.2 87 +10 +10 1008.2 1006.3 +11.1 2
06 18.09 З 1 20 км 4/0
[Ci]
+11.1 +9.3 89 +11 +12 1011.4 1009.4 +11.0 0.7
09 18.09 З 3 20 км 8/3 1000 м
[Cu med, cong Ci fib]
+15.5 +7.0 57 +15 +18 1012.4 1010.5
12 18.09 З 3 20 км 8/4 1000 м
[Cu med, cong Ac trans Ci fib]
+16.7 +6.8 52 +17 +18 1013.1 1011.2
15 18.09 ЮЗ 1 20 км 10/5 600 м
[Cb cap Ac und]
+14.5 +9.5 72 +15 +15 1012.8 1010.9
18 18.09 штиль 0 10 км слабый ливневой дождь 10/8 630 м
[Cb cap Ac und]
+12.2 +10.9 92 +12 +12 1012.7 1010.8 +18.0 0.3
21 18.09 Ю 1 20 км {ливн. осадки} 10/4 600 м
[Sc Ac und]
+12.8 +11.9 94 +13 +13 1011.5 1009.6
00 19.09 Ю 2 20 км {ливн. осадки} 10/10 570 м
[Sc]
+12.5 +11.8 95 +11 +11 1009.8 1007.9
03 19.09 Ю 2 20 км 10/8 840 м
[Cb cap Ac und]
+13.0 +12.3 96 +12 +12 1009.5 1007.6 +11.8 0.3
06 19.09 ЮЗ 2 20 км 6/0
[Ac trans]
+13.3 +12.2 93 +13 +13 1009.1 1007.2 +11.8 0.0
09 19.09 ЮЗ 2 20 км 1/1 1000 м
[Cu hum]
+18.2 +13.3 73 +19 +24 1008.7 1006.8
12 19.09 ЮЗ 2 20 км ясно +21.8 +14.3 62 +25 +29 комфорт 1007.7 1005.8
15 19.09 ЮЗ 2 20 км ясно +22.2 +15.0 64 +26 +26 душно 1006.2 1004.4
18 19.09 З 3 20 км 3/0
[Ac trans]
+17.1 +13.8 81 +17 +17 1007.4 1005.5 +23.0
21 19.09 З 2 20 км ясно +15.9 +13.6 86 +16 +16 1007.9 1006.0
00 20.09 З 2 20 км ясно +15.5 +13.7 89 +15 +15 1009.0 1007.1 -1.3
03 20.09 ЮЗ 1 20 км 5/5 600 м
[Sc]
+14.0 +13.6 97 +14 +14 1010.0 1008.1 +14.0
06 20.09 ЮЗ 2 20 км 3/3 600 м
[Sc]
+13.8 +12.7 93 +13 +14 1011.1 1009.2 +13.0
09 20.09 ЮЗ 2 20 км 10/0
[Ci]
+18.8 +14.3 75 +20 +24 1011.1 1009.2
12 20.09 Ю 3 20 км 9/1 1000 м
[Cu hum Cc]
+21.4 +15.2 68 +25 +27 комфорт 1010.9 1009.1
15 20.09 ЮЗ 3 20 км 6/1 1000 м
[Cu hum Ci fib]
+20.5 +14.5 68 +23 +24 комфорт 1010.3 1008.4
18 20.09 Ю 2 20 км ясно +17.9 +14.4 80 +18 +18 1010.4 1008.5 +21.8
21 20.09 Ю 2 20 км 10/0
[Ci]
+16.4 +13.9 85 +17 +17 1010.4 1008.5
00 21.09 Ю 2 20 км ясно +15.1 +14.8 98 +15 +15 1010.7 1008.8
03 21.09 Ю 2 20 км 9/0
[Ac trans]
+15.3 +13.7 90 +15 +15 1011.5 1009.6 +14.4
06 21.09 Ю 2 20 км 4/0
[Ac trans Ci fib]
+15.5 +13.7 89 +15 +16 1012.3 1010.4 +14.4
09 21.09 ЮЗ 1 20 км 9/5 1000 м
[Cu med, cong Ac trans]
+18.1 +14.3 78 +19 +21 1013.3 1011.4
12 21.09 ЮЗ 3 20 км 10/5 600 м
[Sc Ac trans Ci fib]
+21.0 +14.2 65 +24 +25 комфорт 1013.0 1011.1
15 21.09 Ю 2 20 км 10/0
[Ac trans Ci]
+20.9 +14.2 66 +24 +25 комфорт 1012.2 1010.3
18 21.09 Ю 2 20 км 9/0
[Ac trans]
+17.8 +14.7 82 +18 +18 1010.7 1008.8 +22.1
21 21.09 Ю 2 20 км 10/0
[Ac trans Ci]
+17.6 +13.6 77 +18 +18 1009.1 1007.2
00 22.09 Ю 2 20 км 10/0
[Ci]
+17.8 +14.5 81 +18 +18 1006.9 1005.0
03 22.09 Ю 2 20 км 10/0
[Ci]
+17.1 +13.9 81 +17 +17 1004.2 1002.3 +16.9
06 22.09 Ю 2 20 км 3/0
[Ac trans]
+17.4 +13.5 78 +18 +19 1001.5 999.6 +16.9
09 22.09 Ю 3 20 км 4/0
[Ci]
+20.6 +13.3 63 +23 +27 комфорт 1000.2 998.3

 

Местоположение метеостанции Шлиссельбург (Ленинградская область, Россия): широта 59.93 долгота 31.00 высота над уровнем моря 16 м.

В архиве по умолчанию представлена погода в Шлиссельбурге за последнюю неделю. Архивные данные за месяц целиком и за предыдущие месяцы, начиная с января 2011 года, Вы можете получить, выбрав интересующий диапазон дат из раскрывающегося списка и нажав кнопку "Ввод!".


*Определитесь, кто Вы:
робот инопланетянин человек

Внимание! Время в таблицах - всемирное. Для получения местного времени необходимо прибавить поправку, которая в Шлиссельбурге равна 3 ч.

Смотрите также архив погоды в соседних городах и на ближайших метеорологических станциях:

Погода в Воейково (город Санкт-Петербург, Россия) (17 км)
Погода в Санкт-Петербурге (город Санкт-Петербург, Россия) (39 км)
Погода в Лисьем Носу (город Санкт-Петербург, Россия) (58 км)
Погода в Любани (Ленинградская область, Россия) (66 км)
Погода в Ломоносове (город Санкт-Петербург, Россия) (68 км)
Погода в Кронштадте (город Санкт-Петербург, Россия) (69 км)
Погода в Новой Ладоге (Ленинградская область, Россия) (76 км)
Погода в Сосново (Ленинградская область, Россия) (79 км)
Погода в Киришах (Ленинградская область, Россия) (79 км)
Погода в Белогорке (Ленинградская область, Россия) (81 км)

Пояснения к столбцам:

Ветер - указаны скорость ветра в м/с - средняя за 10 мин, порывы в срок и между сроками (в фигурных скобках) и направление, откуда дует ветер: С - северный, СВ - северо-восточный, В - восточный, ЮВ - юго-восточный, Ю - южный, ЮЗ - юго-западный, З - западный, СЗ - северо-западный.
Видимость - горизонтальная дальность видимости в метрах или километрах. При видимости от 1 до 10 км при отсутствии осадков обычно наблюдается дымка, при ухудшении видимости до 1 км и менее - туман. В сухую погоду видимость может ухудшаться дымом, пылью или мглою.
Явления - указаны атмосферные явления, наблюдавшиеся в срок или в последний час перед сроком; фигурными скобками обозначены явления, наблюдавшиеся между сроками (за 1-3 часа до срока); квадратными скобками обозначены град или гололедные отложения с указанием их диаметра в мм.
Облачность - указаны через наклонную черту общая и нижняя облачность в баллах и высота нижней границы облаков в метрах; квадратными скобками обозначены формы облаков: Ci - перистые, Cs - перисто-слоистые, Cc - перисто-кучевые, Ac - высококучевые, As - высокослоистые, Sc - слоисто-кучевые, Ns - слоисто-дождевые, Cu - кучевые, Cb - кучево-дождевые. Подробнее классификацию облаков см. в Атласе облаков (PDF).
T - Температура воздуха - температура, измеренная на высоте 2 м над землей.
Td - Температура точки росы - температура, при понижении до которой содержащийся в воздухе водяной пар достигнет насыщения.
f - Относительная влажность воздуха - влажноcть воздуха, измеренная на высоте 2 м над землей.
Te - Эффективная температура - температура, которую ощущает одетый по сезону человек в тени. Характеристика душности погоды. При расчете учитывается влияние влажности воздуха и скорости ветра на теплоощущения человека.
Tes - Эффективная температура на солнце - температура, которую ощущает человек, с поправкой на солнечный нагрев. Характеристика знойности погоды. Зависит от высоты солнца над горизонтом, облачности и скорости ветра. Ночью, в пасмурную погоду, а также при ветре 12 м/с и более поправка равна нулю.
P - Атмосферное давление - приведенное к уровню моря атмосферное давление.
Po - Атмосферное давление - измеренное на уровне метеостанции атмосферное давление.
Tmin - Минимальная температура - минимум температуры воздуха на высоте 2 м над землей.
Tmax - Максимальная температура - максимум температуры воздуха на высоте 2 м над землей.
R - Количество осадков - Количество выпавших осадков за период времени, мм. При наведении курсора мыши на число - период времени, за который выпало указанное количество осадков.
R24 - Количество осадков - Количество выпавших осадков за 24 часа, мм.
S - Снежный покров - Высота снежного покрова, см. При наведении курсора мыши на число - состояние снежного покрова и степень покрытия местности в баллах.